Cavalier, ND

2:44 AM CDT on August 18, 2017 (GMT -0500)
Cavalier

Weather History for K2C8 - April, 2013

Change the Weather History Date:

Thursday, April 11, 2013

  Actual Average (KGAF) Record (KGAF)
Temperature  
Mean Temperature 24 °F -  
Max Temperature 32 °F 51 °F 84 °F (1968)
Min Temperature 17 °F 30 °F 11 °F (1957)
Degree Days  
Heating Degree Days 40    
Moisture  
Dew Point -62 °F    
Average Humidity 4    
Maximum Humidity 4    
Minimum Humidity 4    
Precipitation  
Precipitation 0.81 in - - ()
Sea Level Pressure  
Sea Level Pressure 30.02 in    
Wind  
Wind Speed 7 mph (NE)    
Max Wind Speed 15 mph    
Max Gust Speed 22 mph    
Visibility 8 miles    
Events Rain , Snow    
Averages and records for this station are not official NWS values.
T = Trace of Precipitation, MM = Missing Value Source: NWS Daily Summary

Daily Weather History Graph

Daily Weather History Graph

Search for Another Location

Airport or City:

Trip Planner

Search our weather history database for the weather conditions in past years. The results will help you decide how hot, cold, wet, or windy it might be!

Date:

Astronomy

Apr. 11, 2013 Rise Set
Actual Time 6:47 AM CDT 8:16 PM CDT
Civil Twilight 6:14 AM CDT 8:49 PM CDT
Nautical Twilight 5:34 AM CDT 9:29 PM CDT
Astronomical Twilight 4:51 AM CDT 10:13 PM CDT
Moon 7:12 AM CDT (4/11) 10:02 PM CDT (4/11)
Length of Visible Light 14h 35m
Length of Day
13h 29m
New Moon, 2% of the Moon is Illuminated
Apr 11
New Moon
Apr 18
First Quarter
Apr 25
Full
May 2
Last Quarter
May 9
New

Hourly Weather History & Observations

Time (CDT) Temp. Windchill Dew Point Humidity Pressure Visibility Wind Dir Wind Speed Gust Speed Precip Events Conditions
12:15 AM 24.8 °F 16.1 °F -65.2 °F 4% 30.12 in 10.0 mi NNW 8.1 mph - N/A   Clear
12:35 AM 24.8 °F 15.3 °F -63.4 °F 4% 30.12 in 10.0 mi NNW 9.2 mph - N/A   Clear
12:55 AM 24.8 °F 16.1 °F -63.4 °F 4% 30.12 in 10.0 mi NNW 8.1 mph - N/A   Clear
1:15 AM 24.8 °F 16.9 °F -65.2 °F 4% 30.12 in 10.0 mi North 6.9 mph - N/A   Scattered Clouds
1:35 AM 24.8 °F 20.5 °F -63.4 °F 4% 30.12 in 10.0 mi North 3.5 mph - N/A   Scattered Clouds
1:55 AM 23.0 °F 18.4 °F -65.2 °F 4% 30.11 in 10.0 mi NNW 3.5 mph - N/A   Mostly Cloudy
2:15 AM 23.0 °F 18.4 °F -65.2 °F 4% 30.09 in 10.0 mi North 3.5 mph - N/A   Partly Cloudy
2:35 AM 21.2 °F 14.9 °F -65.2 °F 4% 30.08 in 10.0 mi North 4.6 mph - N/A   Clear
2:55 AM 19.4 °F - -67.0 °F 4% 30.07 in 10.0 mi Calm Calm - N/A   Clear
3:15 AM 19.4 °F - -67.0 °F 4% 30.06 in 10.0 mi Calm Calm - N/A   Clear
3:35 AM 17.6 °F - -67.0 °F 4% 30.05 in 10.0 mi Calm Calm - N/A   Clear
3:55 AM 19.4 °F - -67.0 °F 4% 30.05 in 10.0 mi Calm Calm - N/A   Partly Cloudy
4:15 AM 24.8 °F 17.9 °F -63.4 °F 4% 30.04 in 10.0 mi ENE 5.8 mph - N/A   Partly Cloudy
4:35 AM 26.6 °F 20.0 °F -63.4 °F 4% 30.03 in 10.0 mi NE 5.8 mph - N/A   Mostly Cloudy
4:55 AM 26.6 °F 20.0 °F -63.4 °F 4% 30.03 in 10.0 mi NNE 5.8 mph - N/A   Mostly Cloudy
5:15 AM 26.6 °F 20.0 °F -63.4 °F 4% 30.02 in 10.0 mi North 5.8 mph - N/A   Mostly Cloudy
5:35 AM 24.8 °F 17.9 °F -63.4 °F 4% 30.02 in 10.0 mi NNE 5.8 mph - N/A   Partly Cloudy
5:55 AM 24.8 °F 17.9 °F -63.4 °F 4% 30.01 in 10.0 mi NNE 5.8 mph - N/A   Clear
6:15 AM 26.6 °F 19.1 °F -63.4 °F 4% 30.01 in 10.0 mi NNE 6.9 mph - N/A   Clear
6:35 AM 24.8 °F 17.9 °F -63.4 °F 4% 30.01 in 10.0 mi NNE 5.8 mph - N/A   Clear
7:15 AM 24.8 °F 17.9 °F -63.4 °F 4% 30.01 in 10.0 mi NNE 5.8 mph - N/A   Clear
7:35 AM 26.6 °F 19.1 °F -63.4 °F 4% 30.01 in 10.0 mi NE 6.9 mph - N/A   Clear
7:55 AM 26.6 °F 20.0 °F -63.4 °F 4% 30.00 in 10.0 mi NE 5.8 mph - N/A   Clear
8:15 AM 26.6 °F 20.0 °F -63.4 °F 4% 30.01 in 8.0 mi ENE 5.8 mph - N/A   Clear
8:35 AM 26.6 °F 18.2 °F -63.4 °F 4% 30.01 in 9.0 mi East 8.1 mph - N/A   Clear
8:55 AM 26.6 °F 18.2 °F -61.6 °F 4% 30.00 in 8.0 mi ENE 8.1 mph - N/A   Partly Cloudy
9:15 AM 28.4 °F 21.2 °F -61.6 °F 4% 30.01 in 10.0 mi East 6.9 mph - N/A   Partly Cloudy
9:35 AM 28.4 °F 21.2 °F -61.6 °F 4% 29.99 in 7.0 mi ENE 6.9 mph - N/A   Clear
9:55 AM 28.4 °F 21.2 °F -61.6 °F 4% 29.99 in 9.0 mi ENE 6.9 mph - N/A   Clear
10:15 AM 28.4 °F 20.4 °F -61.6 °F 4% 29.99 in 10.0 mi ENE 8.1 mph - N/A   Partly Cloudy
10:35 AM 28.4 °F 20.4 °F -61.6 °F 4% 30.00 in 10.0 mi ENE 8.1 mph - N/A   Clear
10:55 AM 28.4 °F 21.2 °F -61.6 °F 4% 30.01 in 10.0 mi ENE 6.9 mph - N/A   Clear
11:15 AM 28.4 °F 21.2 °F -61.6 °F 4% 30.01 in 10.0 mi ENE 6.9 mph - N/A   Clear
11:35 AM 30.2 °F 23.4 °F -61.6 °F 4% 30.02 in 9.0 mi East 6.9 mph - N/A   Clear
12:15 PM 30.2 °F 21.9 °F -59.8 °F 4% 30.02 in 10.0 mi East 9.2 mph - N/A   Clear
12:35 PM 30.2 °F 21.9 °F -59.8 °F 4% 30.01 in 10.0 mi East 9.2 mph - N/A   Partly Cloudy
12:55 PM 32.0 °F 23.6 °F -59.8 °F 4% 30.01 in 10.0 mi East 10.4 mph - N/A   Clear
1:15 PM 30.2 °F 21.3 °F -61.6 °F 4% 30.01 in 10.0 mi East 10.4 mph - N/A   Clear
1:35 PM 30.2 °F 23.4 °F -61.6 °F 4% 30.00 in 10.0 mi East 6.9 mph - N/A   Clear
1:55 PM 30.2 °F 20.8 °F -61.6 °F 4% 30.00 in 10.0 mi ENE 11.5 mph - N/A   Clear
2:15 PM 30.2 °F 20.2 °F -61.6 °F 4% 30.00 in 10.0 mi ENE 12.7 mph - N/A   Clear
2:35 PM 32.0 °F 22.5 °F -59.8 °F 4% 30.00 in 10.0 mi East 12.7 mph 16.1 mph N/A   Partly Cloudy
2:55 PM 32.0 °F 21.6 °F -59.8 °F 4% 30.00 in 10.0 mi East 15.0 mph - N/A   Partly Cloudy
3:15 PM 32.0 °F 22.1 °F -59.8 °F 4% 29.99 in 10.0 mi ENE 13.8 mph - N/A   Partly Cloudy
3:35 PM 32.0 °F 22.5 °F -59.8 °F 4% 29.99 in 10.0 mi ENE 12.7 mph - N/A   Scattered Clouds
3:55 PM 32.0 °F 22.1 °F -58.0 °F 4% 29.98 in 10.0 mi ENE 13.8 mph 17.3 mph N/A   Partly Cloudy
4:15 PM 32.0 °F 21.6 °F -59.8 °F 4% 29.99 in 10.0 mi East 15.0 mph 21.9 mph N/A   Scattered Clouds
4:35 PM 32.0 °F 23.6 °F -59.8 °F 4% 29.99 in 10.0 mi East 10.4 mph - N/A   Mostly Cloudy
4:55 PM 32.0 °F 22.5 °F -59.8 °F 4% 29.99 in 10.0 mi East 12.7 mph 17.3 mph N/A   Overcast
5:15 PM 32.0 °F 22.5 °F -58.0 °F 4% 29.99 in 10.0 mi East 12.7 mph - N/A   Overcast
5:35 PM 32.0 °F 22.5 °F -59.8 °F 4% 30.00 in 4.0 mi East 12.7 mph 20.7 mph N/A   Overcast
5:55 PM 30.2 °F 24.3 °F -61.6 °F 4% 30.00 in 3.0 mi ENE 5.8 mph - N/A Snow Light Snow
6:15 PM 30.2 °F 21.3 °F -61.6 °F 4% 30.00 in 2.0 mi East 10.4 mph - N/A Snow Light Snow
6:35 PM 28.4 °F 18.5 °F -61.6 °F 4% 30.00 in 1.5 mi ENE 11.5 mph 19.6 mph N/A   Overcast
6:55 PM 28.4 °F 19.7 °F -61.6 °F 4% 30.01 in 0.8 mi ENE 9.2 mph - 0.04 in Snow Light Snow
7:15 PM 28.4 °F 21.2 °F -61.6 °F 4% 30.01 in 0.8 mi NE 6.9 mph - 0.05 in Snow Light Snow
7:35 PM 28.4 °F 19.1 °F -61.6 °F 4% 30.00 in 0.5 mi NE 10.4 mph - 0.17 in Snow Snow
7:55 PM 28.4 °F 20.4 °F -61.6 °F 4% 30.00 in 0.5 mi NE 8.1 mph - 0.32 in Snow Snow
8:15 PM 28.4 °F 21.2 °F -61.6 °F 4% 30.00 in 0.5 mi NE 6.9 mph - 0.09 in Snow Snow
8:35 PM 28.4 °F 20.4 °F -61.6 °F 4% 29.99 in 0.5 mi NNE 8.1 mph - 0.23 in Snow Snow
8:55 PM 28.4 °F 20.4 °F -61.6 °F 4% 29.99 in 1.5 mi NE 8.1 mph - 0.34 in Snow Light Snow
9:15 PM 28.4 °F 20.4 °F -61.6 °F 4% 29.99 in 2.5 mi NE 8.1 mph - 0.03 in Snow Light Snow
9:35 PM 28.4 °F 20.4 °F -61.6 °F 4% 29.99 in 3.0 mi NE 8.1 mph - 0.06 in Snow Light Snow
9:55 PM 28.4 °F 20.4 °F -59.8 °F 4% 29.98 in 4.0 mi NE 8.1 mph - 0.08 in Snow Light Snow
10:15 PM 28.4 °F 20.4 °F -61.6 °F 4% 29.98 in 3.0 mi NE 8.1 mph - N/A Snow Light Snow
10:35 PM 28.4 °F 20.4 °F -59.8 °F 4% 29.97 in 5.0 mi NE 8.1 mph - 0.02 in Snow Light Snow
10:55 PM 28.4 °F 20.4 °F -61.6 °F 4% 29.97 in 9.0 mi NNE 8.1 mph - 0.02 in Rain Light Freezing Rain
11:15 PM 28.4 °F 21.2 °F -61.6 °F 4% 29.97 in 10.0 mi NNE 6.9 mph - N/A Rain Light Freezing Rain
11:35 PM 28.4 °F 23.3 °F -61.6 °F 4% 29.97 in 5.0 mi NNE 4.6 mph - N/A Snow Light Snow
11:55 PM 30.2 °F 24.3 °F -61.6 °F 4% 29.97 in 3.0 mi NE 5.8 mph - 0.01 in Snow Light Snow